METAR KRDU 192351Z COR 00000KT 5SM BR SCT002 BKN050 OVC090 00/00 A3011 RMK AO2 SLP202 PLB21E36SNE21 P0007 60050 4/002 T00000000 10011 20000 56010 $ 
METAR KRDU 192351Z COR 00000KT 5SM BR SCT002 BKN050 OVC090 00/00 A3011 RMK AO2 SLP202 PLB21E36SNE21 P0007 60050 4/002 T00000000 10011 20000 56010 $ 
METAR KRDU 192351Z 00000KT 5SM BR SCT002 BKN050 OVC090 00/00 A3011 RMK AO2 SLP202 PLB21E36SNE21 4/002 P0007 60050 T00000000 10050 20000 56010 $ 
METAR KRDU 192351Z 00000KT 5SM BR SCT002 BKN050 OVC090 00/00 A3011 RMK AO2 SLP202 PLB21E36SNE21 4/002 P0007 60050 T00000000 10050 20000 56010 $ 
SPECI KRDU 192319Z 00000KT 3SM -SN BR SCT002 BKN041 OVC085 00/00 A3011 RMK AO2 P0004 $ 
SPECI KRDU 192319Z 00000KT 3SM -SN BR SCT002 BKN041 OVC085 00/00 A3011 RMK AO2 P0004 $ 
SPECI KRDU 192304Z 00000KT 2SM -SN BR OVC002 00/00 A3012 RMK AO2 P0002 $ 
SPECI KRDU 192304Z 00000KT 2SM -SN BR OVC002 00/00 A3012 RMK AO2 P0002 $ 
METAR KRDU 192251Z 00000KT 1 1/2SM -SN BR OVC010 00/00 A3013 RMK AO2 SLP206 P0010 T00000000 $ 
METAR KRDU 192251Z 00000KT 1 1/2SM -SN BR OVC010 00/00 A3013 RMK AO2 SLP206 P0010 T00000000 $ 
SPECI KRDU 192237Z 00000KT 1 1/4SM -SN BR FEW003 OVC010 00/00 A3013 RMK AO2 CIG 002 RWY 23R P0008 $ 
SPECI KRDU 192237Z 00000KT 1 1/4SM -SN BR FEW003 OVC010 00/00 A3013 RMK AO2 CIG 002 RWY 23R P0008 $ 
SPECI KRDU 192237Z 00000KT 1 1/4SM -SN BR FEW003 OVC010 00/00 A3013 RMK AO2 CIG 002 RWY 23R P0008 $ 
SPECI KRDU 192237Z 00000KT 1 1/4SM -SN BR FEW003 OVC010 00/00 A3013 RMK AO2 CIG 002 RWY 23R P0008 $ 
SPECI KRDU 192224Z 00000KT 2SM -SN BR SCT003 OVC010 00/00 A3013 RMK AO2 CIG 002 RWY 23R P0006 $ 
SPECI KRDU 192224Z 00000KT 2SM -SN BR SCT003 OVC010 00/00 A3013 RMK AO2 CIG 002 RWY 23R P0006 $ 
SPECI KRDU 192224Z 00000KT 2SM -SN BR SCT003 OVC010 00/00 A3013 RMK AO2 CIG 002 RWY 23R P0006 $ 
SPECI KRDU 192224Z 00000KT 2SM -SN BR SCT003 OVC010 00/00 A3013 RMK AO2 CIG 002 RWY 23R P0006 $ 
SPECI KRDU 192212Z 00000KT 1 1/2SM -SN BR FEW001 OVC008 00/00 A3013 RMK AO2 CIG 002 RWY 23R P0004 $ 
SPECI KRDU 192212Z 00000KT 1 1/2SM -SN BR FEW001 OVC008 00/00 A3013 RMK AO2 CIG 002 RWY 23R P0004 $ 
SPECI KRDU 192204Z 00000KT 1 1/4SM -SN BR FEW001 OVC008 00/00 A3013 RMK AO2 CIG 002 RWY 23R P0003 $ 
SPECI KRDU 192204Z 00000KT 1 1/4SM -SN BR FEW001 OVC008 00/00 A3013 RMK AO2 CIG 002 RWY 23R P0003 $ 
METAR KRDU 192151Z 00000KT 3/4SM -SN BR SCT001 OVC006 00/00 A3012 RMK AO2 SLP205 P0010 T00000000 $ 
METAR KRDU 192151Z 00000KT 3/4SM -SN BR SCT001 OVC006 00/00 A3012 RMK AO2 SLP205 P0010 T00000000 $ 
SPECI KRDU 192143Z 00000KT 3/4SM -SN BR BKN003 OVC006 00/00 A3012 RMK AO2 P0009 $ 
SPECI KRDU 192143Z 00000KT 3/4SM -SN BR BKN003 OVC006 00/00 A3012 RMK AO2 P0009 $ 
SPECI KRDU 192128Z 00000KT 1/2SM SN FG BKN001 OVC005 00/00 A3012 RMK AO2 P0006 $ 
SPECI KRDU 192128Z 00000KT 1/2SM SN FG BKN001 OVC005 00/00 A3012 RMK AO2 P0006 $ 
METAR KRDU 192051Z 00000KT 3/4SM -SN BR OVC005 00/00 A3014 RMK AO2 SLP212 P0009 60023 T00000000 56012 $ 
METAR KRDU 192051Z 00000KT 3/4SM -SN BR OVC005 00/00 A3014 RMK AO2 SLP212 P0009 60023 T00000000 56012 $ 
METAR KRDU 191951Z 00000KT 1/2SM SN FG OVC004 00/00 A3015 RMK AO2 SLP214 P0008 T00000000 $ 
METAR KRDU 191951Z 00000KT 1/2SM SN FG OVC004 00/00 A3015 RMK AO2 SLP214 P0008 T00000000 $ 
SPECI KRDU 191902Z 00000KT 3/4SM -SN BR OVC002 01/01 A3015 RMK AO2 P0001 $ 
SPECI KRDU 191902Z 00000KT 3/4SM -SN BR OVC002 01/01 A3015 RMK AO2 P0001 $ 
METAR KRDU 191851Z 00000KT 1SM -SN BR OVC002 01/01 A3015 RMK AO2 SLP213 P0006 T00060006 $ 
METAR KRDU 191851Z 00000KT 1SM -SN BR OVC002 01/01 A3015 RMK AO2 SLP213 P0006 T00060006 $ 
METAR KRDU 191751Z 00000KT 1/2SM SN FG OVC004 01/01 A3018 RMK AO2 RAE24 SLP224 60007 P0003 T00060006 10122 20006 58015 $ 
METAR KRDU 191751Z 00000KT 1/2SM SN FG OVC004 01/01 A3018 RMK AO2 RAE24 SLP224 60007 P0003 T00060006 10122 20006 58015 $ 
SPECI KRDU 191735Z 00000KT 3/4SM -SN BR BKN004 OVC007 01/01 A3021 RMK AO2 RAE24 P0003 $ 
SPECI KRDU 191735Z 00000KT 3/4SM -SN BR BKN004 OVC007 01/01 A3021 RMK AO2 RAE24 P0003 $ 
SPECI KRDU 191708Z 00000KT 1 1/4SM -SNRA BR BKN004 OVC009 01/01 A3021 RMK AO2 TWR VIS 2 P0001 VISNO RWY 23R $ 
SPECI KRDU 191708Z 00000KT 1 1/4SM -SNRA BR BKN004 OVC009 01/01 A3021 RMK AO2 TWR VIS 2 P0001 VISNO RWY 23R $ 
METAR KRDU 191651Z 36003KT 2SM -SNRA BR OVC004 01/01 A3022 RMK AO2 CIG 002V007 SLP237 P0002 T00110011 $ 
METAR KRDU 191651Z 36003KT 2SM -SNRA BR OVC004 01/01 A3022 RMK AO2 CIG 002V007 SLP237 P0002 T00110011 $ 
SPECI KRDU 191634Z 05005KT 2SM -SNRA BR BKN004 OVC016 02/01 A3021 RMK AO2 SFC VIS 2 1/2 $ 
SPECI KRDU 191634Z 05005KT 2SM -SNRA BR BKN004 OVC016 02/01 A3021 RMK AO2 SFC VIS 2 1/2 $ 
SPECI KRDU 191626Z 04004KT 2SM -SNRA BR BKN006 OVC014 02/01 A3021 RMK AO2 SFC VIS 3 PRESFR $ 
SPECI KRDU 191626Z 04004KT 2SM -SNRA BR BKN006 OVC014 02/01 A3021 RMK AO2 SFC VIS 3 PRESFR $ 
METAR KRDU 191551Z COR 05005KT 4SM -SNRA BR OVC011 02/01 A3023 RMK AO2 SLP239 P0002 T00170011 $ 
METAR KRDU 191551Z 05005KT 4SM -SNRA BR OVC011 02/01 A3023 RMK AO2 SLP239 P0002 T00170011 PNO $ 
METAR KRDU 191551Z COR 05005KT 4SM -SNRA BR OVC011 02/01 A3023 RMK AO2 SLP239 P0002 T00170011 $ 
METAR KRDU 191551Z 05005KT 4SM -SNRA BR OVC011 02/01 A3023 RMK AO2 SLP239 P0002 T00170011 PNO $ 
SPECI KRDU 191501Z 05007KT 4SM -SNRA BR OVC011 03/01 A3022 RMK AO2 P0000 $ 
SPECI KRDU 191501Z 05007KT 4SM -SNRA BR OVC011 03/01 A3022 RMK AO2 P0000 $ 
METAR KRDU 191451Z 03006KT 4SM -SNRA OVC015 03/01 A3022 RMK AO2 RAB22PLE1355B11E22SNB51 SLP238 P0001 60001 T00330011 53010 $ 
METAR KRDU 191451Z 03006KT 4SM -SNRA OVC015 03/01 A3022 RMK AO2 RAB22PLE1355B11E22SNB51 SLP238 P0001 60001 T00330011 53010 $ 
SPECI KRDU 191425Z 34004KT 8SM -RA BKN025 BKN031 OVC050 04/01 A3022 RMK AO2 RAB22PLE1355B11E22 P0000 $ 
SPECI KRDU 191425Z 34004KT 8SM -RA BKN025 BKN031 OVC050 04/01 A3022 RMK AO2 RAB22PLE1355B11E22 P0000 $ 
SPECI KRDU 191411Z 00000KT 9SM -PL SCT035 OVC055 04/01 A3021 RMK AO2 PLE1355B11 PRESRR /PRESENT WX:-PL/ P0000 $ 
SPECI KRDU 191411Z 00000KT 9SM -PL SCT035 OVC055 04/01 A3021 RMK AO2 PLE1355B11 PRESRR /PRESENT WX:-PL/ P0000 $ 
SPECI KRDU 191355Z 00000KT 10SM FEW049 OVC060 04/01 A3018 RMK AO2 PLE55 P0000 $ 
SPECI KRDU 191355Z 00000KT 10SM FEW049 OVC060 04/01 A3018 RMK AO2 PLE55 P0000 $ 
METAR KRDU 191351Z 00000KT 10SM -PL OVC060 04/01 A3018 RMK AO2 SLP222 /PRESENT WX:-PL/ P0000 T00390011 $ 
METAR KRDU 191351Z 00000KT 10SM -PL OVC060 04/01 A3018 RMK AO2 SLP222 /PRESENT WX:-PL/ P0000 T00390011 $ 
SPECI KRDU 191326Z 01003KT 8SM -PL BKN070 04/01 A3017 RMK AO2 PX: P0000 $ 
SPECI KRDU 191326Z 01003KT 8SM -PL BKN070 04/01 A3017 RMK AO2 PX: P0000 $ 
SPECI KRDU 191311Z 06003KT 10SM OVC070 04/01 A3016 RMK AO2 PLB1249PLE1310 P0000 $ 
SPECI KRDU 191311Z 06003KT 10SM OVC070 04/01 A3016 RMK AO2 PLB1249PLE1310 P0000 $ 
METAR KRDU 191251Z COR 05003KT 8SM -PL BKN060 OVC070 04/01 A3017 RMK AO2 PLB49 SLP217 P0000 T00390011 $ 
METAR KRDU 191251Z COR 05003KT 8SM -PL BKN060 OVC070 04/01 A3017 RMK AO2 PLB49 SLP217 P0000 T00390011 $ 
METAR KRDU 191251Z 05003KT 8SM -RA BKN060 OVC070 04/01 A3017 RMK AO2 RAB49 SLP217 P0000 T00390011 $ 
METAR KRDU 191251Z 05003KT 8SM -RA BKN060 OVC070 04/01 A3017 RMK AO2 RAB49 SLP217 P0000 T00390011 $ 
METAR KRDU 191151Z 00000KT 9SM OVC065 04/01 A3019 RMK AO2 SLP228 10044 20039 T00390011 53005 $ 
METAR KRDU 191151Z 00000KT 9SM OVC065 04/01 A3019 RMK AO2 SLP228 10044 20039 T00390011 53005 $ 
METAR KRDU 191051Z 00000KT 9SM OVC080 04/01 A3015 RMK AO2 SLP213 T00440006 $ 
METAR KRDU 191051Z 00000KT 9SM OVC080 04/01 A3015 RMK AO2 SLP213 T00440006 $ 
METAR KRDU 190951Z 00000KT 9SM BKN085 04/01 A3017 RMK AO2 SLP220 T00440006 $ 
METAR KRDU 190951Z 00000KT 9SM BKN085 04/01 A3017 RMK AO2 SLP220 T00440006 $ 
METAR KRDU 190851Z 00000KT 10SM OVC080 04/01 A3018 RMK AO2 SLP223 T00440006 51005 $ 
METAR KRDU 190851Z 00000KT 10SM OVC080 04/01 A3018 RMK AO2 SLP223 T00440006 51005 $ 
METAR KRDU 190751Z 25004KT 10SM SCT070 04/00 A3016 RMK AO2 SLP218 T00440000 VISNO RWY 23R $ 
METAR KRDU 190751Z 25004KT 10SM SCT070 04/00 A3016 RMK AO2 SLP218 T00440000 VISNO RWY 23R $ 
METAR KRDU 190651Z 24006KT 10SM BKN110 04/01 A3019 RMK AO2 SLP227 T00440011 
METAR KRDU 190651Z 24006KT 10SM BKN110 04/01 A3019 RMK AO2 SLP227 T00440011 
METAR KRDU 190651Z 24006KT 10SM BKN110 04/01 A3019 RMK AO2 SLP227 T00440011 
METAR KRDU 190651Z 24006KT 10SM BKN110 04/01 A3019 RMK AO2 SLP227 T00440011 
METAR KRDU 190551Z 00000KT 10SM BKN110 04/01 A3016 RMK AO2 SLP217 10050 20044 T00440006 53004 
METAR KRDU 190551Z 00000KT 10SM BKN110 04/01 A3016 RMK AO2 SLP217 10050 20044 T00440006 53004 
METAR KRDU 190451Z COR 00000KT 10SM BKN080 04/00 A3015 RMK AO2 SLP212 400671022 T00440000 
METAR KRDU 190451Z COR 00000KT 10SM BKN080 04/00 A3015 RMK AO2 SLP212 400671022 T00440000 
METAR KRDU 190451Z 00000KT 10SM BKN080 04/00 A3015 RMK AO2 SLP212 400671022 T00440000 401061022 
METAR KRDU 190451Z 00000KT 10SM BKN080 04/00 A3015 RMK AO2 SLP212 400671022 T00440000 401061022 
METAR KRDU 190351Z 24003KT 10SM BKN080 05/01 A3015 RMK AO2 SLP214 T00500006 
METAR KRDU 190351Z 24003KT 10SM BKN080 05/01 A3015 RMK AO2 SLP214 T00500006 
METAR KRDU 190251Z 23003KT 10SM BKN080 05/00 A3015 RMK AO2 SLP213 T00500000 58014 
METAR KRDU 190251Z 23003KT 10SM BKN080 05/00 A3015 RMK AO2 SLP213 T00500000 58014 
METAR KRDU 190151Z COR 27003KT 10SM BKN100 05/00 A3020 RMK AO2 SLP214 T00530000 
METAR KRDU 190151Z COR 27003KT 10SM BKN100 05/00 A3020 RMK AO2 SLP214 T00530000